TimeCST,TemperatureF,Dew PointF,Humidity,Sea Level PressureIn,VisibilityMPH,Wind Direction,Wind SpeedMPH,Gust SpeedMPH,PrecipitationIn,Events,Conditions,WindDirDegrees,DateUTC
12:15 AM,-2.2,-9.4,71,30.52,10.0,NNW,12.7,-,N/A,,Overcast,340,2014-02-05 06:15:00
12:35 AM,-2.2,-9.4,71,30.53,10.0,NNW,11.5,-,N/A,,Overcast,340,2014-02-05 06:35:00
12:55 AM,-2.2,-9.4,71,30.53,10.0,NNW,11.5,-,N/A,,Overcast,340,2014-02-05 06:55:00
1:15 AM,-4.0,-11.2,71,30.53,10.0,NNW,9.2,-,N/A,,Mostly Cloudy,330,2014-02-05 07:15:00
1:35 AM,-7.6,-13.0,77,30.54,10.0,NNW,8.1,-,N/A,,Clear,330,2014-02-05 07:35:00
1:55 AM,-9.4,-13.0,84,30.54,10.0,NNW,9.2,-,N/A,,Clear,330,2014-02-05 07:55:00
2:15 AM,-9.4,-16.6,71,30.55,10.0,NNW,9.2,-,N/A,,Clear,330,2014-02-05 08:15:00
2:35 AM,-9.4,-16.6,71,30.55,10.0,NNW,8.1,-,N/A,,Clear,340,2014-02-05 08:35:00
2:55 AM,-11.2,-16.6,77,30.56,10.0,NNW,8.1,-,N/A,,Mostly Cloudy,340,2014-02-05 08:55:00
3:15 AM,-9.4,-16.6,71,30.56,10.0,NNW,9.2,-,N/A,,Overcast,340,2014-02-05 09:15:00
3:35 AM,-9.4,-14.8,77,30.56,10.0,NNW,8.1,-,N/A,,Overcast,330,2014-02-05 09:35:00
3:55 AM,-9.4,-14.8,77,30.56,10.0,North,5.8,-,N/A,,Overcast,350,2014-02-05 09:55:00
4:15 AM,-9.4,-13.0,84,30.57,10.0,NNW,5.8,-,N/A,,Overcast,340,2014-02-05 10:15:00
4:35 AM,-7.6,-13.0,77,30.57,10.0,North,6.9,-,N/A,,Overcast,360,2014-02-05 10:35:00
4:55 AM,-5.8,-11.2,77,30.57,10.0,North,9.2,-,N/A,,Overcast,360,2014-02-05 10:55:00
5:15 AM,-4.0,-11.2,71,30.57,10.0,North,9.2,-,N/A,,Overcast,360,2014-02-05 11:15:00
5:35 AM,-4.0,-11.2,71,30.56,10.0,North,6.9,-,N/A,,Overcast,350,2014-02-05 11:35:00
5:55 AM,-4.0,-11.2,71,30.56,10.0,NW,8.1,-,N/A,,Overcast,310,2014-02-05 11:55:00
6:15 AM,-4.0,-11.2,71,30.56,10.0,NW,5.8,-,N/A,Snow,Light Snow,320,2014-02-05 12:15:00
6:35 AM,-5.8,-11.2,77,30.55,10.0,NW,6.9,-,N/A,,Overcast,310,2014-02-05 12:35:00
6:55 AM,-4.0,-11.2,71,30.55,10.0,NW,6.9,-,N/A,,Overcast,320,2014-02-05 12:55:00
7:15 AM,-4.0,-11.2,71,30.55,10.0,NW,8.1,-,N/A,,Overcast,310,2014-02-05 13:15:00
7:35 AM,-4.0,-9.4,78,30.54,10.0,NW,8.1,-,N/A,,Overcast,310,2014-02-05 13:35:00
7:55 AM,-4.0,-9.4,78,30.54,10.0,NW,9.2,-,N/A,,Overcast,310,2014-02-05 13:55:00
8:15 AM,-4.0,-9.4,78,30.55,10.0,NW,9.2,-,N/A,,Overcast,310,2014-02-05 14:15:00
8:35 AM,-2.2,-9.4,71,30.55,10.0,NW,10.4,-,N/A,,Overcast,310,2014-02-05 14:35:00
8:55 AM,-2.2,-9.4,71,30.55,10.0,NW,11.5,-,N/A,,Overcast,310,2014-02-05 14:55:00
9:15 AM,-2.2,-9.4,71,30.55,10.0,NW,13.8,-,N/A,,Overcast,310,2014-02-05 15:15:00
9:35 AM,-2.2,-9.4,71,30.54,10.0,NW,15.0,-,N/A,,Overcast,310,2014-02-05 15:35:00
9:55 AM,-2.2,-9.4,71,30.54,10.0,NW,15.0,-,N/A,,Overcast,320,2014-02-05 15:55:00
10:15 AM,-2.2,-9.4,71,30.54,10.0,NW,13.8,-,N/A,,Overcast,310,2014-02-05 16:15:00
10:35 AM,-2.2,-9.4,71,30.54,10.0,NW,13.8,-,N/A,,Scattered Clouds,320,2014-02-05 16:35:00
10:55 AM,-2.2,-9.4,71,30.54,10.0,NW,11.5,-,N/A,,Scattered Clouds,310,2014-02-05 16:55:00
11:15 AM,-2.2,-9.4,71,30.54,10.0,NW,15.0,-,N/A,,Scattered Clouds,310,2014-02-05 17:15:00
11:35 AM,-2.2,-9.4,71,30.53,8.0,NW,13.8,-,N/A,,Mostly Cloudy,310,2014-02-05 17:35:00
11:55 AM,-0.4,-9.4,66,30.53,5.0,WNW,12.7,-,N/A,,Haze,300,2014-02-05 17:55:00
12:15 PM,-0.4,-9.4,66,30.52,4.0,WNW,16.1,-,N/A,,Haze,300,2014-02-05 18:15:00
12:35 PM,-2.2,-9.4,71,30.52,8.0,WNW,15.0,-,N/A,,Overcast,300,2014-02-05 18:35:00
12:55 PM,-2.2,-9.4,71,30.51,7.0,WNW,15.0,-,N/A,,Overcast,300,2014-02-05 18:55:00
1:15 PM,-2.2,-9.4,71,30.51,8.0,WNW,17.3,21.9,N/A,,Overcast,300,2014-02-05 19:15:00
1:35 PM,-2.2,-9.4,71,30.50,7.0,WNW,17.3,-,N/A,,Overcast,290,2014-02-05 19:35:00
1:55 PM,-2.2,-9.4,71,30.49,5.0,WNW,17.3,-,N/A,,Haze,290,2014-02-05 19:55:00
2:15 PM,-2.2,-11.2,66,30.48,5.0,WNW,17.3,-,N/A,,Haze,290,2014-02-05 20:15:00
2:35 PM,-4.0,-11.2,71,30.48,10.0,WNW,17.3,-,N/A,,Overcast,290,2014-02-05 20:35:00
2:55 PM,-4.0,-9999,N/A,30.48,9.0,WNW,16.1,-,N/A,,Overcast,290,2014-02-05 20:55:00
3:15 PM,-4.0,-11.2,71,30.48,9.0,NW,16.1,-,N/A,,Overcast,310,2014-02-05 21:15:00
3:35 PM,-4.0,-11.2,71,30.48,10.0,WNW,17.3,-,N/A,,Mostly Cloudy,300,2014-02-05 21:35:00
3:55 PM,-4.0,-13.0,65,30.48,10.0,WNW,17.3,-,N/A,,Scattered Clouds,300,2014-02-05 21:55:00
4:15 PM,-4.0,-13.0,65,30.48,10.0,WNW,17.3,-,N/A,,Mostly Cloudy,300,2014-02-05 22:15:00
4:35 PM,-4.0,-13.0,65,30.47,10.0,WNW,18.4,21.9,N/A,,Overcast,300,2014-02-05 22:35:00
4:55 PM,-5.8,-13.0,71,30.47,10.0,WNW,19.6,-,N/A,,Overcast,300,2014-02-05 22:55:00
5:15 PM,-7.6,-13.0,77,30.46,10.0,NW,16.1,-,N/A,,Overcast,310,2014-02-05 23:15:00
5:35 PM,-7.6,-14.8,71,30.46,10.0,NW,12.7,-,N/A,,Mostly Cloudy,310,2014-02-05 23:35:00
5:55 PM,-9.4,-14.8,77,30.45,10.0,NW,15.0,-,N/A,,Clear,310,2014-02-05 23:55:00
6:15 PM,-9.4,-14.8,77,30.44,10.0,NW,15.0,-,N/A,,Clear,310,2014-02-06 00:15:00
6:35 PM,-9.4,-14.8,77,30.43,10.0,WNW,18.4,-,N/A,,Clear,300,2014-02-06 00:35:00
6:55 PM,-7.6,-14.8,71,30.43,10.0,WNW,20.7,25.3,N/A,,Clear,300,2014-02-06 00:55:00
7:15 PM,-7.6,-13.0,77,30.41,4.0,WNW,25.3,32.2,N/A,,Haze,300,2014-02-06 01:15:00
7:35 PM,-7.6,-14.8,71,30.42,8.0,WNW,20.7,-,N/A,,Clear,290,2014-02-06 01:35:00
7:55 PM,-9.4,-16.6,71,30.41,10.0,WNW,16.1,-,N/A,,Scattered Clouds,290,2014-02-06 01:55:00
8:15 PM,-9.4,-16.6,71,30.41,10.0,West,15.0,-,N/A,,Partly Cloudy,280,2014-02-06 02:15:00
8:35 PM,-11.2,-16.6,77,30.40,10.0,West,15.0,-,N/A,,Clear,270,2014-02-06 02:35:00
8:55 PM,-11.2,-18.4,70,30.40,10.0,West,15.0,-,N/A,,Clear,280,2014-02-06 02:55:00
9:15 PM,-11.2,-18.4,70,30.39,10.0,West,15.0,-,N/A,,Clear,270,2014-02-06 03:15:00
9:35 PM,-13.0,-18.4,77,30.38,10.0,West,13.8,-,N/A,,Clear,270,2014-02-06 03:35:00
9:55 PM,-11.2,-18.4,70,30.37,10.0,West,15.0,-,N/A,,Clear,270,2014-02-06 03:55:00
10:15 PM,-13.0,-20.2,70,30.37,10.0,WSW,16.1,-,N/A,,Clear,250,2014-02-06 04:15:00
10:35 PM,-13.0,-20.2,70,30.36,10.0,WSW,16.1,-,N/A,,Clear,250,2014-02-06 04:35:00
10:55 PM,-13.0,-18.4,77,30.36,10.0,West,18.4,-,N/A,,Clear,260,2014-02-06 04:55:00
11:15 PM,-13.0,-20.2,70,30.35,10.0,West,17.3,-,N/A,,Scattered Clouds,260,2014-02-06 05:15:00
11:35 PM,-13.0,-18.4,77,30.34,10.0,West,18.4,-,N/A,,Scattered Clouds,260,2014-02-06 05:35:00
11:55 PM,-13.0,-18.4,77,30.33,10.0,West,16.1,-,N/A,,Partly Cloudy,260,2014-02-06 05:55:00